Mullan Pass, ID

4:47 AM PDT on May 25, 2018 (GMT -0700)
Mullan Pass

Weather History for KMLP - October, 2012

Change the Weather History Date:

Thursday, October 4, 2012

  Actual Average (WUND) Record (WUND)
Temperature  
Mean Temperature 30 °F -  
Max Temperature 37 °F - - (-1)
Min Temperature 24 °F - - (-1)
Degree Days  
Heating Degree Days 34    
Moisture  
Dew Point 23 °F    
Average Humidity 75    
Maximum Humidity 92    
Minimum Humidity 59    
Precipitation  
Precipitation 0.00 in - - ()
Sea Level Pressure  
Sea Level Pressure 30.27 in    
Wind  
Wind Speed 6 mph (ESE)    
Max Wind Speed 10 mph    
Max Gust Speed 18 mph    
Visibility 10 miles    
Events      
Averages and records for this station are not official NWS values.
T = Trace of Precipitation, MM = Missing Value Source: NWS Daily Summary

Daily Weather History Graph

Daily Weather History Graph

Search for Another Location

Airport or City:

Astronomy

Oct. 04, 2012 Rise Set
Actual Time 6:46 AM PDT 6:15 PM PDT
Civil Twilight 6:15 AM PDT 6:45 PM PDT
Nautical Twilight 5:40 AM PDT 7:21 PM PDT
Astronomical Twilight 5:04 AM PDT 7:57 PM PDT
Moon 8:34 PM PDT (10/4) 11:26 AM PDT (10/4)
Length of Visible Light 12h 29m
Length of Day
11h 28m
Waning Gibbous, 81% of the Moon is Illuminated
Oct 4
Waning Gibbous
Oct 8
Last Quarter
Oct 15
New
Oct 21
First Quarter
Oct 29
Full

Hourly Weather History & Observations

Time (PDT) Temp. Windchill Dew Point Humidity Pressure Visibility Wind Dir Wind Speed Gust Speed Precip Events Conditions
12:53 AM 27.0 °F 18.0 °F 23.0 °F 85% 30.24 in 10.0 mi ESE 9.2 mph - N/A   Clear
1:41 AM 26.6 °F 19.1 °F 23.0 °F 86% 30.28 in 10.0 mi ESE 6.9 mph 17.3 mph N/A   Partly Cloudy
1:53 AM 27.0 °F 17.3 °F 23.0 °F 85% 30.22 in 10.0 mi ESE 10.4 mph 18.4 mph N/A   Partly Cloudy
2:53 AM 26.1 °F 17.6 °F 24.1 °F 92% 30.22 in 10.0 mi ESE 8.1 mph 18.4 mph N/A   Partly Cloudy
3:53 AM 26.1 °F 17.6 °F 23.0 °F 88% 30.19 in 10.0 mi ESE 8.1 mph 17.3 mph N/A   Clear
6:53 AM 24.1 °F 15.2 °F 21.9 °F 91% 30.35 in 10.0 mi ESE 8.1 mph - N/A   Clear
7:53 AM 25.0 °F 16.3 °F 23.0 °F 92% 30.35 in 10.0 mi East 8.1 mph - N/A   Clear
8:53 AM 28.0 °F 20.0 °F 24.1 °F 85% 30.34 in 10.0 mi ESE 8.1 mph - N/A   Clear
9:24 AM 28.4 °F 24.6 °F 24.8 °F 86% 30.25 in 10.0 mi Variable 3.5 mph - N/A   Partly Cloudy
9:53 AM 30.0 °F 25.2 °F 25.0 °F 82% 30.34 in 10.0 mi Variable 4.6 mph - N/A   Mostly Cloudy
10:00 AM 28.4 °F 23.3 °F 24.8 °F 86% 30.25 in 10.0 mi Variable 4.6 mph - N/A   Scattered Clouds
10:07 AM 30.2 °F - 24.8 °F 80% 30.25 in 10.0 mi Calm Calm - N/A   Mostly Cloudy
10:27 AM 32.0 °F 28.7 °F 24.8 °F 75% 30.25 in 10.0 mi Variable 3.5 mph - N/A   Scattered Clouds
10:53 AM 32.0 °F - 25.0 °F 75% 30.20 in 10.0 mi Calm Calm - N/A   Scattered Clouds
11:03 AM 30.2 °F - 24.8 °F 80% 30.25 in 10.0 mi Calm Calm - N/A   Mostly Cloudy
11:53 AM 32.0 °F - 26.1 °F 79% 30.19 in 10.0 mi Calm Calm - N/A   Overcast
12:23 PM 32.0 °F 27.5 °F 24.8 °F 75% 30.25 in 10.0 mi Variable 4.6 mph - N/A   Overcast
12:53 PM 36.0 °F - 26.1 °F 67% 30.18 in 10.0 mi Calm Calm - N/A   Mostly Cloudy
1:11 PM 35.6 °F - 24.8 °F 65% 30.25 in 10.0 mi Calm Calm - N/A   Scattered Clouds
1:53 PM 36.0 °F - 24.1 °F 62% 30.18 in 10.0 mi Calm Calm - N/A   Partly Cloudy
2:25 PM 37.4 °F - 24.8 °F 60% 30.25 in 10.0 mi Calm Calm - N/A   Mostly Cloudy
2:40 PM 35.6 °F - 24.8 °F 65% 30.25 in 10.0 mi Calm Calm - N/A   Scattered Clouds
2:53 PM 36.0 °F 33.3 °F 24.1 °F 62% 30.19 in 10.0 mi Variable 3.5 mph - N/A   Partly Cloudy
3:19 PM 37.4 °F - 24.8 °F 60% 30.25 in 10.0 mi Calm Calm - N/A   Mostly Cloudy
3:53 PM 36.0 °F - 23.0 °F 59% 30.19 in 10.0 mi Calm Calm - N/A   Mostly Cloudy
4:18 PM 33.8 °F - 23.0 °F 65% 30.26 in 10.0 mi Calm Calm - N/A   Scattered Clouds
4:53 PM 33.1 °F - 21.9 °F 64% 30.35 in 10.0 mi Calm Calm - N/A   Scattered Clouds
5:53 PM 30.0 °F 24.1 °F 21.0 °F 69% 30.38 in 10.0 mi ESE 5.8 mph - N/A   Clear
6:53 PM 28.0 °F 20.0 °F 21.0 °F 75% 30.39 in 10.0 mi ESE 8.1 mph - N/A   Clear
7:53 PM 28.0 °F 20.0 °F 21.0 °F 75% 30.38 in 10.0 mi ESE 8.1 mph - N/A   Clear
8:53 PM 28.0 °F 19.3 °F 21.0 °F 75% 30.38 in 10.0 mi ESE 9.2 mph - N/A   Clear
9:53 PM 28.0 °F 19.3 °F 19.9 °F 72% 30.36 in 10.0 mi ESE 9.2 mph 17.3 mph N/A   Clear
10:53 PM 28.0 °F 19.3 °F 19.0 °F 69% 30.21 in 10.0 mi East 9.2 mph - N/A   Clear
11:53 PM 27.0 °F 18.0 °F 19.0 °F 72% 30.22 in 10.0 mi ESE 9.2 mph - N/A   Clear